Preview of NWS' New Version of Forecast
This preview is not operational and should not be used for support decisions.

Regional Weather Roundup (RWR)

Issued by National Weather Service (NWS)

                            
000
ASUS43 KLSX 181607
RWRMO 

WEATHER SUMMARY FOR MISSOURI
NATIONAL WEATHER SERVICE SPRINGFIELD MO
1100 AM CDT THU JUL 18 2019

NOTE: "FAIR" INDICATES FEW OR NO CLOUDS BELOW 12,000 FEET WITH NO
       SIGNIFICANT WEATHER AND/OR OBSTRUCTIONS TO VISIBILITY.
       CURRENT SKY AND/OR WEATHER CONDITIONS ARE NOT AVAILABLE FOR
       CHILLICOTHE AND FARMINGTON.

MOZ001>031-035>038-043-044-053-054-181700-
...NORTHERN AND WESTERN MISSOURI...
  
CITY           SKY/WX    TMP DP  RH WIND       PRES   REMARKS
KANSAS CTY INT PTSUNNY   87  75  67 SW12G22   29.84F HX  96           
KANSAS C DTWN  SUNNY     90  72  55 SW16      29.83F HX  97           
LEE'S SUMMIT   LGT RAIN  88  73  61 SW16      29.87F HX  95           
ST JOSEPH      SUNNY     88  73  61 S16       29.80F HX  95           
CHILLICOTHE      N/A     89  73  59 SW10G18   29.83F HX  97           
KIRKSVILLE     SUNNY     89  74  60 SW13G24   29.85F HX  98           
     
$$
MOZ066>068-077>081-088>096-101>105-181700-
...SOUTHWEST MISSOURI...
  
CITY           SKY/WX    TMP DP  RH WIND       PRES   REMARKS
SPRINGFIELD    MOSUNNY   88  74  63 SW22G29   29.97S HX  96           
JOPLIN         SUNNY     87  75  67 SW14G25   29.94S HX  96           
BRANSON        MOSUNNY   86  73  66 SW9G16    30.01S HX  93           
               
$$
MOZ032>034-039>042-045>050-055>058-069>072-181700-
...CENTRAL MISSOURI...  
  
CITY           SKY/WX    TMP DP  RH WIND       PRES   REMARKS
COLUMBIA       SUNNY     88  74  63 SW18G25   29.91S HX  96           
ROLLA          SUNNY     85  74  69 SW14G20   29.97R HX  92           
SEDALIA        SUNNY     84  74  71 SW13G25   29.91F HX  91           
WHITEMAN AFB   MOSUNNY   88  75  65 SW20G25   29.85R HX  98           
WARRENSBURG    SUNNY     86  73  66 SW14G21   29.88S HX  93           
OSAGE BEACH    SUNNY     89  75  63 SW17      29.94S HX  99           
               
$$
MOZ051-052-059>065-181700-
...EAST CENTRAL MISSOURI...
  
CITY           SKY/WX    TMP DP  RH WIND       PRES   REMARKS
ST LOUIS INTL  MOSUNNY   88  74  63 W15       29.93F HX  96           
SPIRIT OF STL  MOSUNNY   87  75  67 SW9       29.91F HX  96           
ST CHARLES       N/A    N/A N/A N/A MISG      29.91F                  
                   
$$
MOZ072>076-082>087-097>100-106>115-181700-
...SOUTH CENTRAL AND SOUTHEAST MISSOURI...
  
CITY           SKY/WX    TMP DP  RH WIND       PRES   REMARKS
CAPE GIRARDEAU FAIR      79  74  84 SW3       29.99S                  
FARMINGTON     SUNNY     85  77  77 VRB6      29.99F HX  95           
POPLAR BLUFF   FAIR      79  77  94 S6        29.99S                  
WEST PLAINS    SUNNY     86  75  69 SW12      30.02R HX  95           
                                       
$$